Regional Weather Roundup
Issued by NWS

Home | Current Version | Previous Version | Text Only | Print | Product List | Glossary Off
Versions: 1 2 3 4 5 6 7 8 9 10 11 12 13 14 15 16 17 18 19 20 21 22 23 24 25 26 27 28 29 30 31 32 33 34 35 36 37 38 39 40 41 42 43 44 45 46 47 48 49 50

000
ASUS43 KMKX 272021
RWRWI

WISCONSIN REGIONAL WEATHER ROUNDUP
NATIONAL WEATHER SERVICE MILWAUKEE/SULLIVAN WI
300 PM CDT THU APR 27 2017

NOTE: "FAIR" INDICATES FEW OR NO CLOUDS BELOW 12,000 FEET WITH NO
SIGNIFICANT WEATHER AND/OR OBSTRUCTIONS TO VISIBILITY.

WIZ001-002-006>008-014>016-023>028-272100-
NORTHWEST WISCONSIN

CITY           SKY/WX    TMP DP  RH WIND       PRES   REMARKS
SUPERIOR ARPT  CLOUDY    31  22  69 CALM      29.56R
ASHLAND        CLOUDY    29  22  75 W14       29.53R WCI  18
HAYWARD        CLOUDY    29  21  72 W7        29.54R WCI  22
SIREN          CLOUDY    30  23  74 NW12      29.58R WCI  21
CUMBERLAND     CLOUDY    30  23  74 NW15      29.56R WCI  19
RICE LAKE      CLOUDY    31  25  77 NW9       29.57S WCI  23
CHETEK         CLOUDY    31  26  80 W8        29.56R WCI  23
LADYSMITH      CLOUDY    32  27  80 W15       29.55R WCI  22
EAU CLAIRE     CLOUDY    33  26  75 W14       29.57R WCI  23
MENOMONIE      CLOUDY    34  27  75 W16       29.58R WCI  24
NEW RICHMOND   CLOUDY    32  24  72 W10G16    29.59R WCI  24
OSCEOLA        CLOUDY    33  25  73 W10G16    29.62R WCI  25
$$

WIZ003>005-009-010-017-018-272100-
NORTH CENTRAL WISCONSIN

CITY           SKY/WX    TMP DP  RH WIND       PRES   REMARKS
MANITOWISH WTR FLURRIES  28  24  86 W14       29.46R WCI  17
ARBOR VITAE    LGT SNOW  32  28  85 W8        29.45S WCI  25
WOODRUFF       LGT SNOW  32  28  85 W8        29.45S WCI  25
RHINELANDER    LGT SNOW  30  27  88 W9        29.47R VSB 1   WCI  22
EAGLE RIVER    LGT SNOW  28  25  87 W12G18    29.45R WCI  18
LAND O LAKES   LGT SNOW  28  25  86 NW7       29.46R VSB 1   WCI  21
PHILLIPS       CLOUDY    29  25  87 W7        29.49R WCI  22
TOMAHAWK       LGT SNOW  30  26  86 W6        29.49R WCI  24
MEDFORD        CLOUDY    31  27  84 W10       29.51R WCI  23
MERRILL        MIX PCPN  32  30  93 W7        29.51R WCI  25
$$

WIZ029-030-035-036-043>047-272100-
CENTRAL WISCONSIN

CITY           SKY/WX    TMP DP  RH WIND       PRES   REMARKS
WAUSAU         CLOUDY    32  29  88 W17G23    29.51R WCI  21
MOSINEE        FLURRIES  34  32  93 W12G18    29.53R WCI  25
MARSHFIELD     CLOUDY    34  30  85 W16G23    29.53R WCI  24
STEVENS POINT  CLOUDY    33  32  94 W9        29.54R WCI  26
WAUPACA        CLOUDY    40  34  79 W13       29.55R WCI  32
WAUTOMA        CLOUDY    39  34  82 W17       29.56  WCI  30
WISC RAPIDS    MIX PCPN  36  35  96 W12       29.56R WCI  28
CAMP DOUGLAS   CLOUDY    39  34  81 W8        29.56R WCI  34
$$

WIZ011>013-019>022-031-037>040-048>050-272100-
NORTHEAST WISCONSIN

CITY           SKY/WX    TMP DP  RH WIND       PRES   REMARKS
ANTIGO         LGT SNOW  30  29  94 W9        29.48R WCI  22
SHAWANO        LGT SNOW  36  34  90 W10G17    29.51R WCI  29
OCONTO         NOT AVBL
STURGEON BAY   LGT RAIN  39  36  89 W22       29.48R WCI  29
GREEN BAY      FLURRIES  39  36  89 W15       29.53R WCI  31
MANITOWOC      CLOUDY    39  33  79 W20       29.54R WCI  29
APPLETON       PTSUNNY   37  34  87 W17G25    29.52R WCI  28
CLINTONVILLE   FLURRIES  34  34 100 W14G20    29.52R WCI  24
OSHKOSH        CLOUDY    39  33  79 W13G18    29.55R WCI  31
$$

WIZ032>034-041-042-053>061-272100-
SOUTHWEST WISCONSIN

CITY           SKY/WX    TMP DP  RH WIND       PRES   REMARKS
LA CROSSE      CLOUDY    41  35  79 W14       29.59R
SPARTA         CLOUDY    39  35  85 W9        29.58R WCI  33
VIROQUA        CLOUDY    39  35  83 W18G28    29.58R WCI  30
BOSCOBEL       CLOUDY    44  33  65 W13G21    29.63R
PRAIRIE DU CHI CLOUDY    42  31  64 W17G23    29.63R
PLATTEVILLE    CLOUDY    42  37  82 W13       29.64R
$$

WIZ056-057-062-063-064-067-068-272100-
SOUTH CENTRAL WISCONSIN

CITY           SKY/WX    TMP DP  RH WIND       PRES   REMARKS
REEDSBURG      NOT AVBL
BARABOO/DELLS  CLOUDY    42  35  75 W13G21    29.57R
LONE ROCK      CLOUDY    43  34  70 W14G25    29.61R
MINERAL POINT  CLOUDY    41  36  81 W18G24    29.61R
MADISON        CLOUDY    43  36  76 W8G20     29.59R
MIDDLETON      CLOUDY    43  38  82 W16G22    29.60R
WATERTOWN      CLOUDY    41  36  80 W8        29.60R
MONROE         CLOUDY    41  34  75 W26G32    29.63R
JANESVILLE     CLOUDY    45  37  76 SW17G25   29.62R
$$

WIZ051-052-058>065-066-070>072-272100-
SOUTHEAST WISCONSIN

CITY           SKY/WX    TMP DP  RH WIND       PRES   REMARKS
MILWAUKEE      CLOUDY    44  37  76 SW16G25   29.60R
WAUKESHA       CLOUDY    39  34  81 SW12      29.60R WCI  32
MILWAUKEE/TIMM CLOUDY    43  34  70 SW15G25   29.60R
RACINE         CLOUDY    43  37  79 W15G22    29.63R
KENOSHA        CLOUDY    45  37  73 W21       29.62R
FOND DU LAC    CLOUDY    39  32  76 W14G22    29.57R WCI  31
SHEBOYGAN      CLOUDY    40  35  83 W17G25    29.57R WCI  31
WEST BEND      CLOUDY    41  34  75 W16G23    29.58R
JUNEAU         CLOUDY    40  34  79 SW13      29.60R WCI  32
$$

LSZ147-162-272100-
LAKE SUPERIOR

STATION/POSITION TIME  TEMP    WIND        PRES    WAVE
                       AIR SEA DIR/SP/G            HT/PER
                 (UTC) (F)     (DEG/KT/KT) (MB)    (FT/S)
DEVILS ISLAND    2000   28     300/ 15/ 19 1000.3R
PORT WING        1940   30     290/ 13/ 18 1000.7R
SAXON HARBOR     1930   29     270/  6/ 13  999.7R
$$

LMZ867-665-643>646-272100-
LAKE MICHIGAN

STATION/POSITION TIME  TEMP    WIND        PRES    WAVE
                       AIR SEA DIR/SP/G            HT/PER
                 (UTC) (F)     (DEG/KT/KT) (MB)    (FT/S)
CHAMBERS ISLAND  1940   40     220/  6/ 11  996.6R
N MID LAKE BUOY  1950   38 37  200/ 12/ 16  998.0R   3/ 5
NORTHPORT PIER   1940   40     240/  3/ 10  997.0R
KEWAUNEE LAKESHO 1954   40     250/ 11/ 17  999.0R
SHEBOYGAN LAKESH 2000   41     250/ 15/ 21 1001.5R
PORT WASHINGTON  1940   43     250/ 11/ 19 1002.7R
MILWAUKEE LAKESH 2000   42     270/ 14/ 17   N/A
S MID LAKE BUOY  1950   43 41  260/ 12/ 16 1003.8R   4/ 5
KENOSHA   LAKESH 2000   44     250/ 16/ 23 1004.1
$$

TC  - TEMPERATURE IN CELSIUS
VSB - VISIBILITY IN STATUTE MILES
WCI - WIND CHILL INDEX
HX  - HEAT INDEX





USA.gov is the U.S. government's official web portal to all federal, state and local government web resources and services.